This is the latest recevied weather packets stored in our database for station/object K4QXN. If no packets are shown the sender has not sent any weather packets the latest 10 day(s).
| Time | Temp. | Humidity | Pressure | Rain* | Wind** | Luminosity | Snow |
|---|---|---|---|---|---|---|---|
| 1777654172 | 17.22° C | 50% | 1013.2 hPa | 0 mm | - | - | - |
| 1777653861 | 17.22° C | 52% | 1013.2 hPa | 0 mm | - | - | - |
| 1777653559 | 17.22° C | 51% | 1013.5 hPa | 0 mm | - | - | - |
| 1777652947 | 15.56° C | 52% | 1013.5 hPa | 0 mm | - | - | - |
| 1777652644 | 15.56° C | 54% | 1013.5 hPa | 0 mm | - | - | - |
| 1777652040 | 15° C | 55% | 1013.5 hPa | 0 mm | - | - | - |
| 1777651738 | 15° C | 55% | 1013.5 hPa | 0 mm | - | - | - |
| 1777651436 | 15° C | 55% | 1013.5 hPa | 0 mm | - | - | - |
| 1777651133 | 15° C | 54% | 1013.8 hPa | 0 mm | - | - | - |
| 1777650832 | 15° C | 54% | 1013.8 hPa | 0 mm | - | - | - |
| 1777650530 | 15° C | 53% | 1013.8 hPa | 0 mm | - | - | - |
| 1777650228 | 15.56° C | 53% | 1013.8 hPa | 0 mm | - | - | - |
| 1777649927 | 16.11° C | 52% | 1013.5 hPa | 0 mm | - | - | - |
| 1777649625 | 15.56° C | 55% | 1013.8 hPa | 0 mm | - | - | - |
| 1777649021 | 15.56° C | 53% | 1013.5 hPa | 0 mm | - | - | - |
| 1777648719 | 15.56° C | 53% | 1013.5 hPa | 0 mm | - | - | - |
| 1777648417 | 15.56° C | 55% | 1013.5 hPa | 0 mm | - | - | - |
| 1777647813 | 15° C | 55% | 1013.5 hPa | 0 mm | - | - | - |
| 1777647512 | 14.44° C | 55% | 1013.5 hPa | 0 mm | - | - | - |
| 1777647210 | 14.44° C | 53% | 1013.5 hPa | 0 mm | - | - | - |
| 1777646606 | 15° C | 55% | 1013.5 hPa | 0 mm | - | - | - |
| 1777646002 | 14.44° C | 53% | 1013.5 hPa | 0 mm | - | - | - |
| 1777645398 | 15° C | 55% | 1013.5 hPa | 0 mm | - | - | - |
| 1777645096 | 14.44° C | 53% | 1013.8 hPa | 0 mm | - | - | - |
| 1777644490 | 14.44° C | 53% | 1013.5 hPa | 0 mm | - | - | - |
* Rain latest hour (hover to see other rain measurements)
** Current wind speed in m/s (hover to see current wind gust speed)